[[{"header":{"parameterUnit":"m.s-1","parameterCategory":1,"la1":30.2991,"la2":30.254,"lo1":-89.0895,"lo2":-89.0444,"dy":0.0017,"dx":0.0017,"nx":28,"ny":28,"refTime":"2025-05-31T21:00:00:Z","depth":0,"parameterNumber":2,"parameterNumberName":"U-component_of_WINDS"},"data":[0,0,0,0,0,0,0,0,0,0,0,0,0,0,0,0,0,0,0,0,0,0,0,0,0,0,0,0,0,0,0,0,0,0,0,0,0,0,0,0,0,0,0,0,0,0,0,0,0,0,0,0,0,0,0,0,0,0,-2.3314,-2.3314,0,-2.3317,-2.3317,-2.3317,-2.3251,-2.325,-2.3248,-2.3246,-2.325,-2.3252,-2.3253,0,0,0,0,0,0,0,0,0,0,0,0,0,-2.3255,-2.3256,-2.3314,-2.3314,-2.3314,-2.3317,-2.3317,-2.3317,-2.3252,-2.325,-2.3247,-2.3245,-2.325,-2.3252,-2.3254,0,0,0,0,0,0,0,0,0,0,0,0,0,-2.3271,-2.3257,-2.3314,-2.3282,-2.3279,-2.3317,-2.3317,-2.3317,-2.3252,-2.3249,-2.3247,-2.3244,-2.3249,-2.3251,-2.3254,-2.3323,0,0,-2.3262,-2.3263,0,0,0,0,0,0,0,0,-2.327,-2.3274,-2.3287,-2.3284,-2.3281,-2.3281,-2.3297,-2.3319,-2.3253,-2.3262,-2.3246,-2.3243,-2.3263,-2.3264,-2.327,-2.3323,-2.3323,-2.3262,-2.3264,-2.3265,-2.3266,0,0,0,0,0,0,0,-2.3269,-2.3273,-2.3315,-2.3287,-2.3284,-2.3268,-2.3267,-2.3301,-2.3277,-2.3261,-2.3257,-2.3258,-2.3261,-2.3268,-2.327,-2.3323,-2.3262,-2.3264,-2.3266,-2.3267,-2.3432,-2.3435,0,0,0,0,0,0,-2.3272,-2.3273,-2.3315,-2.3315,-2.3269,-2.3271,-2.3271,-2.3284,-2.3277,-2.3273,-2.326,-2.3255,-2.3265,-2.3267,-2.327,-2.335,-2.3265,-2.3267,-2.3269,-2.343,-2.3433,-2.3436,0,0,0,0,0,0,-2.3271,-2.3277,-2.3315,-2.3293,-2.3296,-2.3275,-2.329,-2.3285,-2.3292,-2.3276,-2.3271,-2.3272,-2.3263,-2.3266,-2.331,-2.3349,-2.3268,-2.3271,-2.3426,-2.3431,-2.3435,-2.3511,0,0,0,0,0,0,-2.327,-2.3277,-2.3302,-2.3294,-2.3298,-2.3355,-2.3293,-2.3287,-2.3297,-2.329,-2.3285,-2.3282,-2.3261,-2.3306,-2.3313,-2.3351,-2.3273,-2.3423,-2.3428,-2.3433,-2.3505,-2.3518,-2.3528,0,0,0,0,0,-2.3268,-2.3324,-2.3304,-2.331,-2.3329,-2.3358,-2.336,-2.3334,-2.33,-2.3326,-2.3315,-2.3282,-2.3344,-2.3311,-2.3318,-2.3358,-2.342,-2.3427,-2.3433,-2.35,-2.3515,-2.3528,0,0,0,0,0,0,-2.3339,-2.3322,-2.33,-2.3355,-2.3358,-2.3346,-2.3378,-2.3351,-2.3364,-2.3357,-2.3324,-2.3324,-2.3373,-2.337,-2.3334,-2.3424,-2.3376,-2.3384,-2.3425,-2.3439,-2.3451,-2.3451,-2.3275,0,0,0,0,0,-2.3361,-2.3384,-2.3369,-2.3419,-2.3422,-2.34,-2.3411,-2.3391,-2.3393,-2.3394,-2.3386,-2.339,-2.341,-2.3424,-2.3442,-2.3504,-2.3502,-2.3535,-2.3546,-2.3556,-2.3564,-2.3597,-2.3611,-2.3457,-2.3457,-2.3457,0,0,-2.3406,-2.34,-2.3417,-2.3433,-2.3433,-2.3459,-2.3401,-2.3431,-2.3451,-2.3399,-2.344,-2.3435,-2.3436,-2.349,-2.3513,-2.3489,-2.3606,-2.3564,-2.3572,-2.3574,-2.3605,-2.3619,-2.3632,-2.3461,-2.3461,-2.346,0,0,-2.3503,-2.35,-2.3542,-2.3543,-2.3544,-2.3529,-2.3539,-2.3531,-2.3526,-2.3566,-2.3528,-2.3551,-2.3586,-2.3589,-2.3595,-2.3693,-2.3663,-2.37,-2.376,-2.3793,-2.3805,-2.3816,-2.3852,-2.3865,-2.3707,-2.3707,-2.3707,0,-2.356,-2.3597,-2.3567,-2.36,-2.3608,-2.3561,-2.3604,-2.3606,-2.3613,-2.362,-2.3592,-2.3635,-2.3633,-2.3687,-2.3711,-2.3718,-2.3729,-2.37,-2.3806,-2.3816,-2.3826,-2.3859,-2.3873,-2.3712,-2.3711,-2.3711,-2.371,0,-2.3667,-2.3694,-2.3727,-2.3735,-2.3746,-2.3784,-2.376,-2.3775,-2.3754,-2.3742,-2.3784,-2.378,-2.3796,-2.3807,-2.3787,-2.3859,-2.3843,-2.3811,-2.3762,-2.3845,-2.3876,-2.3889,-2.3718,-2.3716,-2.3715,-2.3714,0,0,-2.3809,-2.3799,-2.3812,-2.3815,-2.3812,-2.3832,-2.3867,-2.3883,-2.3897,-2.3903,-2.3933,-2.3963,-2.3933,-2.3941,-2.392,-2.3948,-2.4027,-2.3913,-2.3912,-2.3935,-2.4107,-2.4132,-2.4147,-2.4007,-2.4009,-2.4011,-2.4107,0,-2.3904,-2.3963,-2.3937,-2.3999,-2.4024,-2.398,-2.4011,-2.4013,-2.4003,-2.4022,-2.4011,-2.4034,-2.3992,-2.3996,-2.4022,-2.4012,-2.4061,-2.4004,-2.4035,-2.4036,-2.4037,-2.4163,-2.419,-2.428,-2.4119,-2.4121,-2.4122,0,-2.4022,-2.4033,-2.4098,-2.409,-2.41,-2.4128,-2.414,-2.4159,-2.416,-2.4151,-2.4159,-2.4132,-2.4166,-2.4117,-2.4164,-2.4127,-2.4137,-2.4134,-2.4137,-2.4139,-2.4085,-2.417,-2.4309,-2.4323,-2.4141,-2.4139,-2.4138,0,-2.412,-2.4151,-2.4193,-2.4197,-2.419,-2.4211,-2.4209,-2.4207,-2.4218,-2.4229,-2.4236,-2.4251,-2.4259,-2.4271,-2.4249,-2.4215,-2.43,-2.4248,-2.4294,-2.4295,-2.4315,-2.4314,-2.4458,-2.432,-2.432,-2.4319,-2.4319,0,-2.4229,-2.4271,-2.4238,-2.4264,-2.431,-2.4279,-2.4325,-2.4318,-2.4318,-2.4342,-2.4305,-2.4329,-2.4298,-2.4319,-2.4301,-2.4344,-2.4348,-2.4342,-2.4337,-2.4346,-2.4347,-2.4353,-2.4347,-2.4323,-2.4322,-2.4322,-2.4321,0,-2.4347,-2.4326,-2.437,-2.436,-2.4358,-2.4392,-2.4383,-2.4407,-2.4394,-2.4426,-2.4432,-2.4412,-2.4435,-2.4413,-2.4435,-2.4423,-2.448,-2.4466,-2.448,-2.4476,-2.4523,-2.452,-2.4677,-2.4697,-2.4546,-2.4547,-2.4548,0,-2.4418,-2.4449,-2.4442,-2.4456,-2.4456,-2.4478,-2.4489,-2.4461,-2.4474,-2.4477,-2.4502,-2.4521,-2.4535,-2.4574,-2.4562,-2.4579,-2.4565,-2.4619,-2.4567,-2.4575,-2.4567,-2.4566,-2.4569,-2.463,-2.4632,-2.4633,-2.4634,0,-2.4548,-2.4536,-2.4553,-2.4566,-2.458,-2.459,-2.4596,-2.461,-2.458,-2.4597,-2.462,-2.4631,-2.4653,-2.4673,-2.4686,-2.4684,-2.4655,-2.465,-2.4662,-2.4672,-2.4679,-2.4677,-2.451,-2.4647,-2.4646,-2.4645,-2.4644,-2.4644,-2.4645,-2.4671,-2.467,-2.469,-2.4692,-2.4699,-2.4721,-2.4711,-2.4729,-2.4745,-2.4726,-2.4755,-2.4755,-2.4769,-2.4771,-2.4793,-2.477,-2.4787,-2.4791,-2.4796,-2.4803,-2.4675,-2.4795,-2.4795,-2.4794,-2.4794,-2.4794,0,-2.4773,-2.477,-2.4789,-2.4799,-2.4815,-2.4785,-2.4791,-2.4807,-2.4832,-2.4835,-2.4849,-2.4876,-2.4895,-2.4884,-2.4901,-2.4921,-2.4908,-2.4926,-2.4925,-2.4926,-2.4822,-2.4811,-2.4937,-2.4937,-2.4937,-2.4937,-2.4937,-2.4937,-2.4842,-2.4884,-2.4872,-2.4915,-2.4911,-2.4938,-2.4944,-2.4951,-2.4953,-2.4984,-2.5,-2.4992,-2.499,-2.5006,-2.5023,-2.5019,-2.5027,-2.5051,-2.5043,-2.4947,-2.4933,-2.4919,-2.4909,-2.5053,-2.5053,-2.5144,-2.5145,-2.5146]},{"header":{"parameterUnit":"m.s-1","parameterCategory":1,"la1":30.2991,"la2":30.254,"lo1":-89.0895,"lo2":-89.0444,"dy":0.0017,"dx":0.0017,"nx":28,"ny":28,"refTime":"2025-05-31T21:00:00:Z","depth":0,"parameterNumber":3,"parameterNumberName":"V-component_of_WINDS"},"data":[0,0,0,0,0,0,0,0,0,0,0,0,0,0,0,0,0,0,0,0,0,0,0,0,0,0,0,0,0,0,0,0,0,0,0,0,0,0,0,0,0,0,0,0,0,0,0,0,0,0,0,0,0,0,0,0,0,0,-3.2841,-3.2841,0,-3.2837,-3.2837,-3.2837,-3.2794,-3.2793,-3.2792,-3.2791,-3.2786,-3.2787,-3.2788,0,0,0,0,0,0,0,0,0,0,0,0,0,-3.2812,-3.2813,-3.2841,-3.2841,-3.2841,-3.2837,-3.2837,-3.2837,-3.2794,-3.2793,-3.2791,-3.279,-3.2786,-3.2787,-3.2788,0,0,0,0,0,0,0,0,0,0,0,0,0,-3.2818,-3.2813,-3.2841,-3.2819,-3.2817,-3.2837,-3.2837,-3.2837,-3.2794,-3.2793,-3.2791,-3.2789,-3.2785,-3.2787,-3.2788,-3.2829,0,0,-3.2792,-3.2793,0,0,0,0,0,0,0,0,-3.2818,-3.2819,-3.2823,-3.2821,-3.2819,-3.2814,-3.2825,-3.2834,-3.2795,-3.2803,-3.2791,-3.2789,-3.2797,-3.2797,-3.28,-3.2829,-3.2828,-3.2792,-3.2793,-3.2794,-3.2794,0,0,0,0,0,0,0,-3.2817,-3.2819,-3.284,-3.2823,-3.282,-3.281,-3.2809,-3.2827,-3.2809,-3.2802,-3.2799,-3.2799,-3.2795,-3.2799,-3.2799,-3.2828,-3.2792,-3.2793,-3.2794,-3.2795,-3.2891,-3.2892,0,0,0,0,0,0,-3.282,-3.2819,-3.284,-3.284,-3.2814,-3.2811,-3.281,-3.2817,-3.2809,-3.2806,-3.28,-3.2797,-3.2797,-3.2798,-3.2799,-3.2847,-3.2794,-3.2795,-3.2796,-3.2889,-3.2891,-3.2893,0,0,0,0,0,0,-3.282,-3.2822,-3.284,-3.2828,-3.283,-3.2814,-3.2822,-3.2818,-3.2821,-3.2807,-3.2804,-3.2807,-3.2796,-3.2797,-3.2822,-3.2846,-3.2795,-3.2797,-3.2887,-3.2889,-3.2892,-3.2942,0,0,0,0,0,0,-3.2819,-3.2822,-3.2838,-3.2829,-3.2831,-3.2863,-3.2823,-3.2819,-3.2824,-3.2819,-3.2813,-3.281,-3.2795,-3.282,-3.2823,-3.2847,-3.2798,-3.2885,-3.2888,-3.2891,-3.2938,-3.2946,-3.2953,0,0,0,0,0,-3.2818,-3.2852,-3.2839,-3.2842,-3.285,-3.2865,-3.2865,-3.2847,-3.2826,-3.2841,-3.2832,-3.281,-3.2843,-3.2823,-3.2826,-3.285,-3.2883,-3.2887,-3.2891,-3.2935,-3.2944,-3.2953,0,0,0,0,0,0,-3.2864,-3.2851,-3.2836,-3.2868,-3.2868,-3.2857,-3.2876,-3.2858,-3.2864,-3.2859,-3.2836,-3.2835,-3.2863,-3.2859,-3.2837,-3.289,-3.2859,-3.2864,-3.2891,-3.29,-3.2908,-3.2908,-3.2799,0,0,0,0,0,-3.2878,-3.2891,-3.2879,-3.2908,-3.2909,-3.2893,-3.2898,-3.2884,-3.2883,-3.2883,-3.2876,-3.2875,-3.2885,-3.2892,-3.2901,-3.2937,-3.2935,-3.2955,-3.2963,-3.2969,-3.2973,-3.2993,-3.3002,-3.2906,-3.2906,-3.2906,0,0,-3.2907,-3.2901,-3.2911,-3.2917,-3.2916,-3.293,-3.2893,-3.291,-3.292,-3.2885,-3.2908,-3.2903,-3.2901,-3.2932,-3.2945,-3.2929,-3.2999,-3.2974,-3.2979,-3.298,-3.2998,-3.3007,-3.3015,-3.2908,-3.2908,-3.2907,0,0,-3.2967,-3.2964,-3.2988,-3.2987,-3.2985,-3.2974,-3.298,-3.2972,-3.2967,-3.299,-3.2964,-3.2976,-3.2994,-3.2994,-3.2996,-3.3056,-3.3036,-3.3059,-3.3098,-3.3117,-3.3124,-3.3131,-3.3153,-3.3161,-3.3064,-3.3064,-3.3064,0,-3.3003,-3.3024,-3.3003,-3.3022,-3.3025,-3.2994,-3.3019,-3.3019,-3.302,-3.3023,-3.3005,-3.3027,-3.3024,-3.3054,-3.3069,-3.3071,-3.3078,-3.306,-3.3125,-3.3131,-3.3137,-3.3158,-3.3166,-3.3067,-3.3066,-3.3066,-3.3066,0,-3.3069,-3.3083,-3.3103,-3.3105,-3.3111,-3.3133,-3.3115,-3.3124,-3.3109,-3.31,-3.3123,-3.3118,-3.3125,-3.3131,-3.3116,-3.3159,-3.315,-3.3129,-3.3098,-3.315,-3.3169,-3.3176,-3.3071,-3.307,-3.3069,-3.3068,0,0,-3.3158,-3.3148,-3.3156,-3.3156,-3.3151,-3.3162,-3.3182,-3.3189,-3.3197,-3.3199,-3.3215,-3.3231,-3.3211,-3.3214,-3.3199,-3.3216,-3.3265,-3.3193,-3.3192,-3.3207,-3.3312,-3.3329,-3.3338,-3.3251,-3.3252,-3.3253,-3.3313,0,-3.3217,-3.3251,-3.3233,-3.3269,-3.3283,-3.3253,-3.3271,-3.327,-3.3262,-3.3272,-3.3263,-3.3275,-3.3248,-3.3249,-3.3264,-3.3255,-3.3285,-3.3251,-3.3267,-3.3267,-3.3269,-3.3348,-3.3365,-3.3422,-3.332,-3.3321,-3.3322,0,-3.329,-3.3294,-3.3332,-3.3325,-3.333,-3.3346,-3.3351,-3.3361,-3.3359,-3.3352,-3.3355,-3.3337,-3.3356,-3.3325,-3.3351,-3.3328,-3.3333,-3.333,-3.3331,-3.3333,-3.3299,-3.3352,-3.3439,-3.3448,-3.3333,-3.3333,-3.3332,0,-3.3352,-3.3368,-3.3393,-3.3394,-3.3386,-3.3398,-3.3395,-3.3392,-3.3397,-3.3401,-3.3404,-3.3411,-3.3415,-3.342,-3.3404,-3.3382,-3.3433,-3.34,-3.3428,-3.3428,-3.344,-3.344,-3.353,-3.3442,-3.3442,-3.3442,-3.3442,0,-3.342,-3.3444,-3.3421,-3.3436,-3.3463,-3.3441,-3.3468,-3.3462,-3.346,-3.3473,-3.3448,-3.3461,-3.3438,-3.345,-3.3437,-3.3461,-3.3463,-3.3458,-3.3454,-3.3461,-3.3461,-3.3464,-3.346,-3.3444,-3.3444,-3.3443,-3.3443,0,-3.3495,-3.3479,-3.3505,-3.3495,-3.3493,-3.3513,-3.3505,-3.3519,-3.3509,-3.3527,-3.3529,-3.3514,-3.3526,-3.351,-3.352,-3.3511,-3.3545,-3.3535,-3.3545,-3.3543,-3.3572,-3.357,-3.3667,-3.3679,-3.3584,-3.3585,-3.3586,0,-3.3539,-3.3557,-3.355,-3.3557,-3.3556,-3.3568,-3.3573,-3.3553,-3.356,-3.3559,-3.3573,-3.3583,-3.359,-3.361,-3.3599,-3.3607,-3.3598,-3.3631,-3.3599,-3.3605,-3.3599,-3.3599,-3.3601,-3.3638,-3.364,-3.3641,-3.3641,0,-3.362,-3.3612,-3.3621,-3.3627,-3.3634,-3.3638,-3.364,-3.3648,-3.3626,-3.3635,-3.3647,-3.3652,-3.3662,-3.3673,-3.3678,-3.3674,-3.3655,-3.3651,-3.3658,-3.3666,-3.3671,-3.3669,-3.3564,-3.365,-3.3649,-3.3648,-3.3648,-3.3647,-3.3682,-3.3697,-3.3694,-3.3704,-3.3704,-3.3706,-3.3719,-3.371,-3.372,-3.3727,-3.3714,-3.3729,-3.3727,-3.3732,-3.3731,-3.3743,-3.3728,-3.3738,-3.3741,-3.3744,-3.3749,-3.3669,-3.3743,-3.3743,-3.3743,-3.3743,-3.3742,0,-3.3762,-3.3759,-3.3769,-3.3772,-3.3781,-3.3761,-3.3762,-3.3771,-3.3784,-3.3784,-3.3791,-3.3805,-3.3814,-3.3805,-3.3813,-3.3824,-3.3815,-3.3827,-3.3826,-3.3826,-3.3761,-3.3754,-3.3834,-3.3834,-3.3834,-3.3834,-3.3834,-3.3834,-3.3805,-3.3829,-3.3821,-3.3845,-3.3841,-3.3856,-3.3858,-3.3861,-3.386,-3.3877,-3.3885,-3.3878,-3.3874,-3.3881,-3.3889,-3.3886,-3.3891,-3.3906,-3.39,-3.3839,-3.383,-3.3822,-3.3816,-3.3907,-3.3907,-3.3964,-3.3964,-3.3965]}]]